Selawik, AK

1:50 AM AKST on November 19, 2017 (GMT -0900)
Selawik

Weather History for PASK - February, 2014

Change the Weather History Date:

Friday, February 14, 2014

  Actual Average Record
Temperature  
Mean Temperature -30 °F -  
Max Temperature -23 °F 5 °F 37 °F (2006)
Min Temperature -38 °F -3 °F -38 °F (2014)
Degree Days  
Heating Degree Days 96    
Moisture  
Dew Point -26 °F    
Average Humidity 100    
Maximum Humidity 100    
Minimum Humidity 100    
Precipitation  
Precipitation 0.00 in - - ()
Sea Level Pressure  
Sea Level Pressure 29.65 in    
Wind  
Wind Speed 1 mph (WNW)    
Max Wind Speed 5 mph    
Max Gust Speed -    
Visibility 8 miles    
Events      
Averages and records for this station are not official NWS values.
T = Trace of Precipitation, MM = Missing Value Source: NWS Daily Summary

Daily Weather History Graph

Daily Weather History Graph

Search for Another Location

Airport or City:

Trip Planner

Search our weather history database for the weather conditions in past years. The results will help you decide how hot, cold, wet, or windy it might be!

Date:

Astronomy

Feb. 14, 2014 Rise Set
Actual Time 9:51 AM AKST 5:58 PM AKST
Civil Twilight 8:53 AM AKST 6:55 PM AKST
Nautical Twilight 7:52 AM AKST 7:57 PM AKST
Astronomical Twilight 6:51 AM AKST 8:58 PM AKST
Moon 6:40 PM AKST (2/14) 9:05 AM AKST (2/14)
Length of Visible Light 10h 01m
Length of Day
8h 06m
Full, 100% of the Moon is Illuminated
Feb 14
Full
Feb 14
Full
Feb 22
Last Quarter
Feb 28
New
Mar 8
First Quarter

Hourly Weather History & Observations

Time (AKST) Temp. Windchill Dew Point Humidity Pressure Visibility Wind Dir Wind Speed Gust Speed Precip Events Conditions
12:16 AM -29.2 °F -41.2 °F - N/A% 29.70 in 10.0 mi West 3.5 mph - N/A   Clear
12:36 AM -29.2 °F - - N/A% 29.70 in 10.0 mi Calm Calm - N/A   Clear
12:56 AM -29.2 °F -44.0 °F - N/A% 29.70 in 10.0 mi West 4.6 mph - N/A   Clear
1:16 AM -29.2 °F - - N/A% 29.70 in 8.0 mi Calm Calm - N/A   Clear
1:36 AM -32.8 °F - - N/A% 29.70 in 10.0 mi Calm Calm - N/A   Clear
1:56 AM -32.8 °F - - N/A% 29.70 in 10.0 mi Calm Calm - N/A   Clear
2:16 AM -32.8 °F - - N/A% 29.70 in 10.0 mi Calm Calm - N/A   Clear
2:36 AM -34.6 °F -47.4 °F - N/A% 29.70 in 10.0 mi NW 3.5 mph - N/A   Clear
2:56 AM -36.4 °F - - N/A% 29.70 in 7.0 mi Calm Calm - N/A   Clear
3:16 AM - - - N/A% 29.69 in 7.0 mi Calm Calm - N/A   Clear
3:36 AM -36.4 °F - - N/A% 29.69 in 9.0 mi Calm Calm - N/A   Clear
3:56 AM - - - N/A% 29.69 in 10.0 mi Calm Calm - N/A   Clear
4:16 AM -38.2 °F - - N/A% 29.69 in 10.0 mi Calm Calm - N/A   Clear
4:36 AM - - - N/A% 29.69 in 10.0 mi Calm Calm - N/A   Clear
4:56 AM - - - N/A% 29.69 in 2.5 mi Calm Calm - N/A   Clear
5:16 AM -38.2 °F - - N/A% 29.69 in 6.0 mi Calm Calm - N/A   Clear
5:36 AM - - - N/A% 29.68 in 4.0 mi Calm Calm - N/A   Clear
5:56 AM - - - N/A% 29.68 in 2.0 mi Calm Calm - N/A   Clear
6:16 AM - - - N/A% 29.68 in 2.0 mi Calm Calm - N/A   Clear
6:36 AM - - - N/A% 29.68 in 2.0 mi Calm Calm - N/A   Clear
6:56 AM - - - N/A% 29.67 in 10.0 mi Calm Calm - N/A   Clear
7:16 AM - - - N/A% 29.67 in 7.0 mi Calm Calm - N/A   Clear
7:36 AM - - - N/A% 29.67 in 10.0 mi Calm Calm - N/A   Clear
7:56 AM - - - N/A% 29.67 in 10.0 mi Calm Calm - N/A   Clear
8:16 AM - - - N/A% 29.67 in 10.0 mi Calm Calm - N/A   Clear
8:36 AM - - - N/A% 29.66 in 10.0 mi Calm Calm - N/A   Clear
8:56 AM - - - N/A% 29.67 in 5.0 mi Calm Calm - N/A   Clear
9:16 AM - - - N/A% 29.66 in 10.0 mi Calm Calm - N/A   Clear
9:36 AM - - - N/A% 29.66 in 5.0 mi Calm Calm - N/A   Clear
9:56 AM -36.4 °F - - N/A% 29.67 in 2.5 mi Calm Calm - N/A   Clear
10:16 AM - - - N/A% 29.66 in 3.0 mi Calm Calm - N/A   Partly Cloudy
10:36 AM -38.2 °F - - N/A% 29.66 in 5.0 mi Calm Calm - N/A   Clear
10:56 AM - - - N/A% 29.65 in 6.0 mi Calm Calm - N/A   Clear
11:16 AM -38.2 °F - - N/A% 29.66 in 10.0 mi Calm Calm - N/A   Clear
11:36 AM -34.6 °F - - N/A% 29.65 in 4.0 mi Calm Calm - N/A   Clear
11:56 AM -36.4 °F - - N/A% 29.65 in 10.0 mi Calm Calm - N/A   Clear
12:16 PM -34.6 °F - - N/A% 29.65 in 10.0 mi Calm Calm - N/A   Clear
12:36 PM -32.8 °F - - N/A% 29.65 in 10.0 mi Calm Calm - N/A   Clear
12:56 PM -31.0 °F - - N/A% 29.66 in 7.0 mi Calm Calm - N/A   Clear
1:16 PM -29.2 °F - - N/A% 29.66 in 8.0 mi Calm Calm - N/A   Clear
1:36 PM -27.4 °F - - N/A% 29.65 in 10.0 mi Calm Calm - N/A   Clear
1:56 PM -25.6 °F - - N/A% 29.65 in 9.0 mi Calm Calm - N/A   Clear
2:16 PM -27.4 °F - - N/A% 29.65 in 10.0 mi Calm Calm - N/A   Clear
2:36 PM -27.4 °F - - N/A% 29.64 in 10.0 mi Calm Calm - N/A   Clear
2:56 PM -27.4 °F -39.2 °F - N/A% 29.64 in 10.0 mi NNW 3.5 mph - N/A   Clear
3:16 PM -29.2 °F - - N/A% 29.64 in 10.0 mi Calm Calm - N/A   Clear
3:36 PM -29.2 °F - - N/A% 29.64 in 10.0 mi Calm Calm - N/A   Clear
3:56 PM -29.2 °F -41.2 °F - N/A% 29.64 in 10.0 mi NNE 3.5 mph - N/A   Clear
4:16 PM -29.2 °F - - N/A% 29.64 in 10.0 mi Calm Calm - N/A   Clear
4:36 PM -29.2 °F - - N/A% 29.64 in 10.0 mi Calm Calm - N/A   Clear
4:56 PM -25.6 °F -37.1 °F - N/A% 29.63 in 8.0 mi NW 3.5 mph - N/A   Clear
5:16 PM -27.4 °F -39.2 °F -27.4 °F 100% 29.63 in 5.0 mi WNW 3.5 mph - N/A   Clear
5:36 PM -25.6 °F -37.1 °F - N/A% 29.62 in 10.0 mi West 3.5 mph - N/A   Clear
5:56 PM -23.8 °F - - N/A% 29.62 in 10.0 mi Calm Calm - N/A   Clear
6:16 PM -25.6 °F - - N/A% 29.62 in 10.0 mi Calm Calm - N/A   Clear
6:36 PM -27.4 °F - - N/A% 29.62 in 7.0 mi Calm Calm - N/A   Clear
6:56 PM -27.4 °F - - N/A% 29.62 in 10.0 mi Calm Calm - N/A   Clear
7:16 PM -25.6 °F - - N/A% 29.61 in 10.0 mi Calm Calm - N/A   Clear
7:36 PM -27.4 °F -41.9 °F - N/A% 29.60 in 9.0 mi West 4.6 mph - N/A   Clear
7:56 PM -23.8 °F -35.0 °F - N/A% 29.60 in 10.0 mi West 3.5 mph - N/A   Clear
8:16 PM -23.8 °F - -23.8 °F 100% 29.60 in 10.0 mi Calm Calm - N/A   Clear
8:36 PM -25.6 °F - - N/A% 29.59 in 10.0 mi Calm Calm - N/A   Clear
8:56 PM -29.2 °F - - N/A% 29.60 in 10.0 mi Calm Calm - N/A   Clear
9:16 PM -29.2 °F - - N/A% 29.59 in 8.0 mi Calm Calm - N/A   Clear
9:36 PM -31.0 °F - - N/A% 29.59 in 9.0 mi Calm Calm - N/A   Clear
9:56 PM -31.0 °F - - N/A% 29.59 in 10.0 mi Calm Calm - N/A   Clear
10:16 PM -32.8 °F - - N/A% 29.59 in 10.0 mi Calm Calm - N/A   Clear
10:36 PM -32.8 °F - - N/A% 29.58 in 10.0 mi Calm Calm - N/A   Clear
10:56 PM -29.2 °F -44.0 °F - N/A% 29.58 in 10.0 mi West 4.6 mph - N/A   Clear
11:16 PM -29.2 °F -44.0 °F - N/A% 29.57 in 10.0 mi West 4.6 mph - N/A   Clear
11:36 PM -29.2 °F -41.2 °F - N/A% 29.58 in 10.0 mi West 3.5 mph - N/A   Clear
11:56 PM -29.2 °F - - N/A% 29.58 in 10.0 mi Calm Calm - N/A   Clear